Year,Month,Day,Hour,Minute,Value (Times are PST for temperature in C)
2012,06,29,00,00,14.40
2012,06,29,00,01,14.40
2012,06,29,00,02,14.40
2012,06,29,00,03,14.40
2012,06,29,00,04,14.40
2012,06,29,00,05,14.40
2012,06,29,00,06,14.40
2012,06,29,00,07,14.40
2012,06,29,00,08,14.40
2012,06,29,00,09,14.40
2012,06,29,00,10,14.40
2012,06,29,00,11,14.40
2012,06,29,00,12,14.40
2012,06,29,00,13,14.40
2012,06,29,00,14,14.40
2012,06,29,00,15,14.40
2012,06,29,00,16,14.40
2012,06,29,00,17,14.40
2012,06,29,00,18,14.40
2012,06,29,00,19,14.40
2012,06,29,00,20,14.40
2012,06,29,00,21,14.40
2012,06,29,00,22,14.40
2012,06,29,00,23,14.40
2012,06,29,00,24,14.40
2012,06,29,00,25,14.40
2012,06,29,00,26,14.40
2012,06,29,00,27,14.40
2012,06,29,00,28,14.40
2012,06,29,00,29,14.40
2012,06,29,00,30,14.40
2012,06,29,00,31,14.40
2012,06,29,00,32,14.40
2012,06,29,00,33,14.40
2012,06,29,00,34,14.40
2012,06,29,00,35,14.40
2012,06,29,00,36,14.40
2012,06,29,00,37,14.40
2012,06,29,00,38,14.40
2012,06,29,00,39,14.40
2012,06,29,00,40,14.50
2012,06,29,00,41,14.40
2012,06,29,00,42,14.50
2012,06,29,00,43,14.50
2012,06,29,00,44,14.50
2012,06,29,00,45,14.50
2012,06,29,00,46,14.50
2012,06,29,00,47,14.50
2012,06,29,00,48,14.50
2012,06,29,00,49,14.50
2012,06,29,00,50,14.60
2012,06,29,00,51,14.60
2012,06,29,00,52,14.60
2012,06,29,00,53,14.60
2012,06,29,00,54,14.60
2012,06,29,00,55,14.60
2012,06,29,00,56,14.60
2012,06,29,00,57,14.60
2012,06,29,00,58,14.60
2012,06,29,00,59,14.60
2012,06,29,01,00,14.60
2012,06,29,01,01,14.60
2012,06,29,01,02,14.60
2012,06,29,01,03,14.60
2012,06,29,01,04,14.60
2012,06,29,01,05,14.60
2012,06,29,01,06,14.60
2012,06,29,01,07,14.70
2012,06,29,01,08,14.70
2012,06,29,01,09,14.70
2012,06,29,01,10,14.70
2012,06,29,01,11,14.70
2012,06,29,01,12,14.70
2012,06,29,01,13,14.70
2012,06,29,01,14,14.70
2012,06,29,01,15,14.70
2012,06,29,01,16,14.70
2012,06,29,01,17,14.70
2012,06,29,01,18,14.70
2012,06,29,01,19,14.70
2012,06,29,01,20,14.70
2012,06,29,01,21,14.70
2012,06,29,01,22,14.70
2012,06,29,01,23,14.70
2012,06,29,01,24,14.70
2012,06,29,01,25,14.70
2012,06,29,01,26,14.70
2012,06,29,01,27,14.70
2012,06,29,01,28,14.70
2012,06,29,01,29,14.70
2012,06,29,01,30,14.70
2012,06,29,01,31,14.70
2012,06,29,01,32,14.70
2012,06,29,01,33,14.70
2012,06,29,01,34,14.70
2012,06,29,01,35,14.70
2012,06,29,01,36,14.70
2012,06,29,01,37,14.70
2012,06,29,01,38,14.70
2012,06,29,01,39,14.70
2012,06,29,01,40,14.70
2012,06,29,01,41,14.70
2012,06,29,01,42,14.70
2012,06,29,01,43,14.70
2012,06,29,01,44,14.70
2012,06,29,01,45,14.70
2012,06,29,01,46,14.70
2012,06,29,01,47,14.70
2012,06,29,01,48,14.70
2012,06,29,01,49,14.70
2012,06,29,01,50,14.70
2012,06,29,01,51,14.70
2012,06,29,01,52,14.70
2012,06,29,01,53,14.70
2012,06,29,01,54,14.70
2012,06,29,01,55,14.70
2012,06,29,01,56,14.70
2012,06,29,01,57,14.70
2012,06,29,01,58,14.70
2012,06,29,01,59,14.70
2012,06,29,02,00,14.70
2012,06,29,02,01,14.70
2012,06,29,02,02,14.70
2012,06,29,02,03,14.70
2012,06,29,02,04,14.70
2012,06,29,02,05,14.70
2012,06,29,02,06,14.70
2012,06,29,02,07,14.70
2012,06,29,02,08,14.70
2012,06,29,02,09,14.70
2012,06,29,02,10,14.70
2012,06,29,02,11,14.70
2012,06,29,02,12,14.60
2012,06,29,02,13,14.60
2012,06,29,02,14,14.60
2012,06,29,02,15,14.60
2012,06,29,02,16,14.60
2012,06,29,02,17,14.60
2012,06,29,02,18,14.60
2012,06,29,02,19,14.60
2012,06,29,02,20,14.60
2012,06,29,02,21,14.60
2012,06,29,02,22,14.70
2012,06,29,02,23,14.70
2012,06,29,02,24,14.70
2012,06,29,02,25,14.70
2012,06,29,02,26,14.70
2012,06,29,02,27,14.70
2012,06,29,02,28,14.60
2012,06,29,02,29,14.70
2012,06,29,02,30,14.70
2012,06,29,02,31,14.70
2012,06,29,02,32,14.70
2012,06,29,02,33,14.70
2012,06,29,02,34,14.70
2012,06,29,02,35,14.70
2012,06,29,02,36,14.70
2012,06,29,02,37,14.70
2012,06,29,02,38,14.70
2012,06,29,02,39,14.70
2012,06,29,02,40,14.70
2012,06,29,02,41,14.70
2012,06,29,02,42,14.70
2012,06,29,02,43,14.70
2012,06,29,02,44,14.70
2012,06,29,02,45,14.70
2012,06,29,02,46,14.70
2012,06,29,02,47,14.70
2012,06,29,02,48,14.70
2012,06,29,02,49,14.70
2012,06,29,02,50,14.70
2012,06,29,02,51,14.70
2012,06,29,02,52,14.70
2012,06,29,02,53,14.60
2012,06,29,02,54,14.60
2012,06,29,02,55,14.70
2012,06,29,02,56,14.70
2012,06,29,02,57,14.70
2012,06,29,02,58,14.70
2012,06,29,02,59,14.70
2012,06,29,03,00,14.70
2012,06,29,03,01,14.70
2012,06,29,03,02,14.70
2012,06,29,03,03,14.70
2012,06,29,03,04,14.70
2012,06,29,03,05,14.70
2012,06,29,03,06,14.70
2012,06,29,03,07,14.70
2012,06,29,03,08,14.70
2012,06,29,03,09,14.70
2012,06,29,03,10,14.80
2012,06,29,03,11,14.80
2012,06,29,03,12,14.80
2012,06,29,03,13,14.80
2012,06,29,03,14,14.80
2012,06,29,03,15,14.80
2012,06,29,03,16,14.80
2012,06,29,03,17,14.80
2012,06,29,03,18,14.80
2012,06,29,03,19,14.80
2012,06,29,03,20,14.80
2012,06,29,03,21,14.80
2012,06,29,03,22,14.80
2012,06,29,03,23,14.80
2012,06,29,03,24,14.80
2012,06,29,03,25,14.80
2012,06,29,03,26,14.80
2012,06,29,03,27,14.80
2012,06,29,03,28,14.80
2012,06,29,03,29,14.80
2012,06,29,04,02,14.90
2012,06,29,04,03,14.90
2012,06,29,04,04,14.90
2012,06,29,04,05,14.90
2012,06,29,04,06,14.90
2012,06,29,04,07,14.90
2012,06,29,04,08,14.90
2012,06,29,04,09,14.90
2012,06,29,04,10,14.90
2012,06,29,04,11,15.00
2012,06,29,04,12,15.00
2012,06,29,04,13,15.00
2012,06,29,04,14,15.00
2012,06,29,04,15,15.00
2012,06,29,04,16,15.00
2012,06,29,04,17,15.00
2012,06,29,04,18,14.90
2012,06,29,04,19,14.90
2012,06,29,04,20,14.90
2012,06,29,04,21,14.90
2012,06,29,04,22,14.90
2012,06,29,04,23,14.90
2012,06,29,04,24,15.00
2012,06,29,04,25,14.90
2012,06,29,04,26,14.90
2012,06,29,04,27,14.90
2012,06,29,04,28,14.90
2012,06,29,04,29,14.90
2012,06,29,04,30,14.90
2012,06,29,04,31,14.90
2012,06,29,04,32,14.90
2012,06,29,04,33,14.90
2012,06,29,04,34,14.90
2012,06,29,04,35,14.90
2012,06,29,04,36,14.90
2012,06,29,04,37,14.90
2012,06,29,04,38,14.80
2012,06,29,04,39,14.80
2012,06,29,04,40,14.80
2012,06,29,04,41,14.80
2012,06,29,04,42,14.80
2012,06,29,04,43,14.80
2012,06,29,04,44,14.80
2012,06,29,04,45,14.80
2012,06,29,04,46,14.80
2012,06,29,04,47,14.80
2012,06,29,04,48,14.80
2012,06,29,04,49,14.80
2012,06,29,04,50,14.80
2012,06,29,04,51,14.80
2012,06,29,04,52,14.80
2012,06,29,04,53,14.70
2012,06,29,04,54,14.70
2012,06,29,04,55,14.70
2012,06,29,04,56,14.70
2012,06,29,04,57,14.70
2012,06,29,04,58,14.70
2012,06,29,04,59,14.70
2012,06,29,05,00,14.70
2012,06,29,05,01,14.70
2012,06,29,05,02,14.70
2012,06,29,05,03,14.70
2012,06,29,05,04,14.70
2012,06,29,05,05,14.80
2012,06,29,05,06,14.70
2012,06,29,05,07,14.70
2012,06,29,05,08,14.70
2012,06,29,05,09,14.70
2012,06,29,05,10,14.70
2012,06,29,05,11,14.70
2012,06,29,05,12,14.70
2012,06,29,05,13,14.70
2012,06,29,05,14,14.70
2012,06,29,05,15,14.70
2012,06,29,05,16,14.70
2012,06,29,05,17,14.70
2012,06,29,05,18,14.60
2012,06,29,05,19,14.60
2012,06,29,05,20,14.60
2012,06,29,05,21,14.60
2012,06,29,05,22,14.60
2012,06,29,05,23,14.60
2012,06,29,05,24,14.60
2012,06,29,05,25,14.60
2012,06,29,05,26,14.60
2012,06,29,05,27,14.60
2012,06,29,05,28,14.60
2012,06,29,05,29,14.60
2012,06,29,05,30,14.60
2012,06,29,05,31,14.60
2012,06,29,05,32,14.60
2012,06,29,05,33,14.60
2012,06,29,05,34,14.60
2012,06,29,05,35,14.60
2012,06,29,05,36,14.60
2012,06,29,05,37,14.60
2012,06,29,05,38,14.60
2012,06,29,05,39,14.60
2012,06,29,05,40,14.60
2012,06,29,05,41,14.60
2012,06,29,05,42,14.60
2012,06,29,05,43,14.60
2012,06,29,05,44,14.60
2012,06,29,05,45,14.60
2012,06,29,05,46,14.60
2012,06,29,05,47,14.60
2012,06,29,05,48,14.60
2012,06,29,05,49,14.60
2012,06,29,05,50,14.60
2012,06,29,05,51,14.60
2012,06,29,05,52,14.60
2012,06,29,05,53,14.60
2012,06,29,05,54,14.60
2012,06,29,05,55,14.50
2012,06,29,05,56,14.60
2012,06,29,05,57,14.50
2012,06,29,05,58,14.50
2012,06,29,05,59,14.50
2012,06,29,06,00,14.50
2012,06,29,06,01,14.50
2012,06,29,06,02,14.50
2012,06,29,06,03,14.50
2012,06,29,06,04,14.50
2012,06,29,06,05,14.50
2012,06,29,06,06,14.50
2012,06,29,06,07,14.50
2012,06,29,06,08,14.50
2012,06,29,06,09,14.50
2012,06,29,06,10,14.50
2012,06,29,06,11,14.50
2012,06,29,06,12,14.50
2012,06,29,06,13,14.50
2012,06,29,06,14,14.60
2012,06,29,06,15,14.60
2012,06,29,06,16,14.50
2012,06,29,06,17,14.50
2012,06,29,06,18,14.50
2012,06,29,06,19,14.60
2012,06,29,06,20,14.60
2012,06,29,06,21,14.60
2012,06,29,06,22,14.50
2012,06,29,06,23,14.50
2012,06,29,06,24,14.50
2012,06,29,06,25,14.50
2012,06,29,06,26,14.50
2012,06,29,06,27,14.50
2012,06,29,06,28,14.50
2012,06,29,06,29,14.50
2012,06,29,06,30,14.50
2012,06,29,06,31,14.50
2012,06,29,06,32,14.60
2012,06,29,06,33,14.60
2012,06,29,06,34,14.60
2012,06,29,06,35,14.60
2012,06,29,06,36,14.60
2012,06,29,06,37,14.60
2012,06,29,06,38,14.60
2012,06,29,06,39,14.60
2012,06,29,06,40,14.60
2012,06,29,06,41,14.60
2012,06,29,06,42,14.60
2012,06,29,06,43,14.60
2012,06,29,06,44,14.60
2012,06,29,06,45,14.60
2012,06,29,06,46,14.60
2012,06,29,06,47,14.70
2012,06,29,06,48,14.70
2012,06,29,06,49,14.70
2012,06,29,06,50,14.70
2012,06,29,06,51,14.70
2012,06,29,06,52,14.70
2012,06,29,06,53,14.70
2012,06,29,06,54,14.70
2012,06,29,06,55,14.70
2012,06,29,06,56,14.70
2012,06,29,06,57,14.70
2012,06,29,06,58,14.70
2012,06,29,06,59,14.70
2012,06,29,07,00,14.70
2012,06,29,07,01,14.70
2012,06,29,07,02,14.70
2012,06,29,07,03,14.70
2012,06,29,07,04,14.70
2012,06,29,07,05,14.70
2012,06,29,07,06,14.70
2012,06,29,07,07,14.80
2012,06,29,07,08,14.80
2012,06,29,07,09,14.80
2012,06,29,07,10,14.80
2012,06,29,07,11,14.80
2012,06,29,07,12,14.80
2012,06,29,07,13,14.80
2012,06,29,07,14,14.80
2012,06,29,07,15,14.80
2012,06,29,07,16,14.90
2012,06,29,07,17,14.90
2012,06,29,07,18,14.90
2012,06,29,07,19,14.90
2012,06,29,07,20,14.90
2012,06,29,07,21,14.90
2012,06,29,07,22,15.00
2012,06,29,07,23,15.00
2012,06,29,07,24,15.00
2012,06,29,07,25,15.00
2012,06,29,07,26,15.00
2012,06,29,07,27,15.00
2012,06,29,07,28,15.00
2012,06,29,07,29,15.00
2012,06,29,07,30,15.00
2012,06,29,07,31,15.00
2012,06,29,07,32,15.00
2012,06,29,07,33,15.00
2012,06,29,07,34,15.00
2012,06,29,07,35,15.00
2012,06,29,07,36,15.00
2012,06,29,07,37,15.00
2012,06,29,07,38,15.00
2012,06,29,07,39,15.00
2012,06,29,07,40,15.00
2012,06,29,07,41,15.10
2012,06,29,07,42,15.10
2012,06,29,07,43,15.10
2012,06,29,07,44,15.20
2012,06,29,07,45,15.20
2012,06,29,07,46,15.20
2012,06,29,07,47,15.20
2012,06,29,07,48,15.20
2012,06,29,07,49,15.20
2012,06,29,07,50,15.30
2012,06,29,07,51,15.30
2012,06,29,07,52,15.30
2012,06,29,07,53,15.30
2012,06,29,07,54,15.30
2012,06,29,07,55,15.30
2012,06,29,07,56,15.30
2012,06,29,07,57,15.30
2012,06,29,07,58,15.40
2012,06,29,07,59,15.30
2012,06,29,08,00,15.30
2012,06,29,08,01,15.30
2012,06,29,08,02,15.40
2012,06,29,08,03,15.40
2012,06,29,08,04,15.40
2012,06,29,08,05,15.40
2012,06,29,08,06,15.40
2012,06,29,08,07,15.40
2012,06,29,08,08,15.50
2012,06,29,08,09,15.50
2012,06,29,08,10,15.50
2012,06,29,08,11,15.60
2012,06,29,08,12,15.60
2012,06,29,08,13,15.60
2012,06,29,08,14,15.60
2012,06,29,08,15,15.70
2012,06,29,08,16,15.70
2012,06,29,08,17,15.70
2012,06,29,08,18,15.70
2012,06,29,08,19,15.70
2012,06,29,08,20,15.80
2012,06,29,08,21,15.80
2012,06,29,08,22,15.80
2012,06,29,08,23,15.80
2012,06,29,08,24,15.80
2012,06,29,08,25,15.80
2012,06,29,08,26,15.80
2012,06,29,08,27,15.80
2012,06,29,08,28,15.80
2012,06,29,08,29,15.80
2012,06,29,08,30,15.90
2012,06,29,08,31,15.90
2012,06,29,08,32,15.90
2012,06,29,08,33,15.90
2012,06,29,08,34,15.90
2012,06,29,08,35,15.90
2012,06,29,08,36,15.90
2012,06,29,08,37,15.90
2012,06,29,08,38,16.00
2012,06,29,08,39,16.00
2012,06,29,08,40,16.10
2012,06,29,08,41,16.10
2012,06,29,08,42,16.10
2012,06,29,08,43,16.10
2012,06,29,08,44,16.20
2012,06,29,08,45,16.10
2012,06,29,08,46,16.10
2012,06,29,08,47,16.10
2012,06,29,08,48,16.10
2012,06,29,08,49,16.10
2012,06,29,08,50,16.10
2012,06,29,08,51,16.10
2012,06,29,08,52,16.10
2012,06,29,08,53,16.10
2012,06,29,08,54,16.10
2012,06,29,08,55,16.10
2012,06,29,08,56,16.10
2012,06,29,08,57,16.10
2012,06,29,08,58,16.20
2012,06,29,08,59,16.20
2012,06,29,09,00,16.20
2012,06,29,09,01,16.20
2012,06,29,09,02,16.30
2012,06,29,09,03,16.30
2012,06,29,09,04,16.30
2012,06,29,09,05,16.30
2012,06,29,09,06,16.30
2012,06,29,09,07,16.30
2012,06,29,09,08,16.30
2012,06,29,09,09,16.30
2012,06,29,09,10,16.40
2012,06,29,09,11,16.30
2012,06,29,09,12,16.30
2012,06,29,09,13,16.40
2012,06,29,09,14,16.40
2012,06,29,09,15,16.40
2012,06,29,09,16,16.30
2012,06,29,09,17,16.30
2012,06,29,09,18,16.30
2012,06,29,09,19,16.30
2012,06,29,09,20,16.30
2012,06,29,09,21,16.30
2012,06,29,09,22,16.30
2012,06,29,09,23,16.30
2012,06,29,09,24,16.30
2012,06,29,09,25,16.30
2012,06,29,09,26,16.30
2012,06,29,09,27,16.40
2012,06,29,09,28,16.40
2012,06,29,09,29,16.40
2012,06,29,09,30,16.40
2012,06,29,09,31,16.30
2012,06,29,09,32,16.40
2012,06,29,09,33,16.40
2012,06,29,09,34,16.40
2012,06,29,09,35,16.40
2012,06,29,09,36,16.50
2012,06,29,09,37,16.50
2012,06,29,09,38,16.50
2012,06,29,09,39,16.60
2012,06,29,09,40,16.70
2012,06,29,09,41,16.70
2012,06,29,09,42,16.70
2012,06,29,09,43,16.70
2012,06,29,09,44,16.80
2012,06,29,09,45,16.80
2012,06,29,09,46,16.80
2012,06,29,09,47,16.90
2012,06,29,09,48,16.90
2012,06,29,09,49,16.90
2012,06,29,09,50,16.90
2012,06,29,09,51,16.80
2012,06,29,09,52,16.80
2012,06,29,09,53,16.80
2012,06,29,09,54,16.80
2012,06,29,09,55,16.90
2012,06,29,09,56,16.80
2012,06,29,09,57,16.80
2012,06,29,09,58,16.90
2012,06,29,09,59,16.90
2012,06,29,10,00,16.90
2012,06,29,10,01,17.00
2012,06,29,10,02,16.90
2012,06,29,10,03,17.00
2012,06,29,10,04,17.00
2012,06,29,10,05,17.00
2012,06,29,10,06,17.00
2012,06,29,10,07,17.00
2012,06,29,10,08,17.10
2012,06,29,10,09,17.10
2012,06,29,10,10,17.10
2012,06,29,10,11,17.10
2012,06,29,10,12,17.10
2012,06,29,10,13,17.20
2012,06,29,10,14,17.30
2012,06,29,10,15,17.40
2012,06,29,10,16,17.40
2012,06,29,10,17,17.40
2012,06,29,10,18,17.40
2012,06,29,10,19,17.30
2012,06,29,10,20,17.30
2012,06,29,10,21,17.40
2012,06,29,10,22,17.40
2012,06,29,10,23,17.30
2012,06,29,10,24,17.30
2012,06,29,10,25,17.30
2012,06,29,10,26,17.30
2012,06,29,10,27,17.30
2012,06,29,10,28,17.30
2012,06,29,10,29,17.20
2012,06,29,10,30,17.20
2012,06,29,10,31,17.10
2012,06,29,10,32,17.10
2012,06,29,10,33,17.10
2012,06,29,10,34,17.20
2012,06,29,10,35,17.20
2012,06,29,10,36,17.20
2012,06,29,10,37,17.30
2012,06,29,10,38,17.30
2012,06,29,10,39,17.30
2012,06,29,10,40,17.30
2012,06,29,10,41,17.30
2012,06,29,10,42,17.40
2012,06,29,10,43,17.50
2012,06,29,10,44,17.60
2012,06,29,10,45,17.70
2012,06,29,10,46,17.80
2012,06,29,10,47,17.80
2012,06,29,10,48,17.80
2012,06,29,10,49,17.80
2012,06,29,10,50,17.80
2012,06,29,10,51,17.80
2012,06,29,10,52,17.80
2012,06,29,10,53,17.80
2012,06,29,10,54,17.90
2012,06,29,10,55,18.00
2012,06,29,10,56,18.10
2012,06,29,10,57,18.10
2012,06,29,10,58,18.10
2012,06,29,10,59,18.20
2012,06,29,11,00,18.20
2012,06,29,11,01,18.30
2012,06,29,11,02,18.30
2012,06,29,11,03,18.30
2012,06,29,11,04,18.30
2012,06,29,11,05,18.30
2012,06,29,11,06,18.30
2012,06,29,11,07,18.40
2012,06,29,11,08,18.30
2012,06,29,11,09,18.30
2012,06,29,11,10,18.10
2012,06,29,11,11,18.10
2012,06,29,11,12,18.00
2012,06,29,11,13,18.00
2012,06,29,11,14,18.10
2012,06,29,11,15,18.10
2012,06,29,11,16,18.00
2012,06,29,11,17,18.00
2012,06,29,11,18,18.00
2012,06,29,11,19,17.90
2012,06,29,11,20,17.90
2012,06,29,11,21,17.90
2012,06,29,11,22,18.00
2012,06,29,11,23,18.10
2012,06,29,11,24,18.20
2012,06,29,11,25,18.20
2012,06,29,11,26,18.30
2012,06,29,11,27,18.20
2012,06,29,11,28,18.20
2012,06,29,11,29,18.10
2012,06,29,11,30,18.00
2012,06,29,11,31,17.90
2012,06,29,11,32,17.80
2012,06,29,11,33,17.80
2012,06,29,11,34,17.80
2012,06,29,11,35,17.90
2012,06,29,11,36,18.00
2012,06,29,11,37,18.10
2012,06,29,11,38,18.20
2012,06,29,11,39,18.20
2012,06,29,11,40,18.20
2012,06,29,11,41,18.10
2012,06,29,11,42,18.00
2012,06,29,11,43,17.90
2012,06,29,11,44,17.90
2012,06,29,11,45,18.00
2012,06,29,11,46,18.10
2012,06,29,11,47,18.20
2012,06,29,11,48,18.20
2012,06,29,11,49,18.30
2012,06,29,11,50,18.50
2012,06,29,11,51,18.60
2012,06,29,11,52,18.70
2012,06,29,11,53,18.60
2012,06,29,11,54,18.60
2012,06,29,11,55,18.40
2012,06,29,11,56,18.30
2012,06,29,11,57,18.20
2012,06,29,11,58,18.20
2012,06,29,11,59,18.10
2012,06,29,12,00,18.00
2012,06,29,12,01,18.00
2012,06,29,12,02,18.00
2012,06,29,12,03,18.00
2012,06,29,12,04,18.10
2012,06,29,12,05,18.20
2012,06,29,12,06,18.20
2012,06,29,12,07,18.20
2012,06,29,12,08,18.30
2012,06,29,12,09,18.30
2012,06,29,12,10,18.20
2012,06,29,12,11,18.20
2012,06,29,12,12,18.30
2012,06,29,12,13,18.30
2012,06,29,12,14,18.30
2012,06,29,12,15,18.30
2012,06,29,12,16,18.30
2012,06,29,12,17,18.30
2012,06,29,12,18,18.30
2012,06,29,12,19,18.30
2012,06,29,12,20,18.40
2012,06,29,12,21,18.40
2012,06,29,12,22,18.40
2012,06,29,12,23,18.30
2012,06,29,12,24,18.20
2012,06,29,12,25,18.20
2012,06,29,12,26,18.20
2012,06,29,12,27,18.20
2012,06,29,12,28,18.20
2012,06,29,12,29,18.10
2012,06,29,12,30,18.10
2012,06,29,12,31,18.10
2012,06,29,12,32,18.10
2012,06,29,12,33,18.10
2012,06,29,12,34,18.10
2012,06,29,12,35,18.10
2012,06,29,12,36,18.10
2012,06,29,12,37,18.10
2012,06,29,12,38,18.10
2012,06,29,12,39,18.10
2012,06,29,12,40,18.10
2012,06,29,12,41,18.10
2012,06,29,12,42,18.20
2012,06,29,12,43,18.10
2012,06,29,12,44,18.10
2012,06,29,12,45,18.10
2012,06,29,12,46,18.00
2012,06,29,12,47,17.90
2012,06,29,12,48,17.90
2012,06,29,12,49,18.00
2012,06,29,12,50,18.10
2012,06,29,12,51,18.20
2012,06,29,12,52,18.30
2012,06,29,12,53,18.50
2012,06,29,12,54,18.70
2012,06,29,12,55,18.90
2012,06,29,12,56,19.00
2012,06,29,12,57,19.00
2012,06,29,12,58,18.90
2012,06,29,12,59,18.90
2012,06,29,13,00,18.80
2012,06,29,13,01,18.80
2012,06,29,13,02,18.80
2012,06,29,13,03,18.80
2012,06,29,13,04,18.80
2012,06,29,13,05,18.70
2012,06,29,13,06,18.60
2012,06,29,13,07,18.60
2012,06,29,13,08,18.60
2012,06,29,13,09,18.60
2012,06,29,13,10,18.50
2012,06,29,13,11,18.50
2012,06,29,13,12,18.40
2012,06,29,13,13,18.40
2012,06,29,13,14,18.40
2012,06,29,13,15,18.40
2012,06,29,13,16,18.30
2012,06,29,13,17,18.30
2012,06,29,13,18,18.30
2012,06,29,13,19,18.20
2012,06,29,13,20,18.10
2012,06,29,13,21,18.00
2012,06,29,13,22,18.00
2012,06,29,13,23,18.10
2012,06,29,13,24,18.10
2012,06,29,13,25,18.10
2012,06,29,13,26,18.10
2012,06,29,13,27,18.00
2012,06,29,13,28,18.00
2012,06,29,13,29,18.00
2012,06,29,13,30,18.10
2012,06,29,13,31,18.20
2012,06,29,13,32,18.30
2012,06,29,13,33,18.40
2012,06,29,13,34,18.40
2012,06,29,13,35,18.40
2012,06,29,13,36,18.40
2012,06,29,13,37,18.40
2012,06,29,13,38,18.40
2012,06,29,13,39,18.40
2012,06,29,13,40,18.40
2012,06,29,13,41,18.50
2012,06,29,13,42,18.60
2012,06,29,13,43,18.70
2012,06,29,13,44,18.70
2012,06,29,13,45,18.80
2012,06,29,13,46,18.90
2012,06,29,13,47,19.00
2012,06,29,13,48,19.20
2012,06,29,13,49,19.30
2012,06,29,13,50,19.40
2012,06,29,13,51,19.40
2012,06,29,13,52,19.40
2012,06,29,13,53,19.40
2012,06,29,13,54,19.40
2012,06,29,13,55,19.40
2012,06,29,13,56,19.20
2012,06,29,13,57,19.20
2012,06,29,13,58,19.20
2012,06,29,13,59,19.10
2012,06,29,14,00,19.10
2012,06,29,14,01,19.10
2012,06,29,14,02,19.00
2012,06,29,14,03,18.90
2012,06,29,14,04,18.80
2012,06,29,14,05,18.80
2012,06,29,14,06,18.80
2012,06,29,14,07,18.80
2012,06,29,14,08,18.80
2012,06,29,14,09,18.80
2012,06,29,14,10,18.80
2012,06,29,14,11,18.90
2012,06,29,14,12,18.90
2012,06,29,14,13,18.90
2012,06,29,14,14,18.90
2012,06,29,14,15,18.80
2012,06,29,14,16,18.80
2012,06,29,14,17,18.80
2012,06,29,14,18,18.70
2012,06,29,14,19,18.70
2012,06,29,14,20,18.70
2012,06,29,14,21,18.70
2012,06,29,14,22,18.60
2012,06,29,14,23,18.70
2012,06,29,14,24,18.70
2012,06,29,14,25,18.70
2012,06,29,14,26,18.70
2012,06,29,14,27,18.80
2012,06,29,14,28,18.80
2012,06,29,14,29,18.80
2012,06,29,14,30,18.80
2012,06,29,14,31,18.80
2012,06,29,14,32,18.90
2012,06,29,14,33,18.90
2012,06,29,14,34,18.90
2012,06,29,14,35,18.90
2012,06,29,14,36,18.90
2012,06,29,14,37,19.00
2012,06,29,14,38,19.20
2012,06,29,14,39,19.30
2012,06,29,14,40,19.20
2012,06,29,14,41,19.20
2012,06,29,14,42,19.40
2012,06,29,14,43,19.60
2012,06,29,14,44,19.70
2012,06,29,14,45,19.80
2012,06,29,14,46,19.80
2012,06,29,14,47,19.80
2012,06,29,14,48,19.90
2012,06,29,14,49,19.90
2012,06,29,14,50,19.90
2012,06,29,14,51,19.90
2012,06,29,14,52,19.90
2012,06,29,14,53,20.00
2012,06,29,14,54,20.10
2012,06,29,14,55,20.20
2012,06,29,14,56,20.10
2012,06,29,14,57,20.10
2012,06,29,14,58,20.10
2012,06,29,14,59,20.00
2012,06,29,15,00,19.80
2012,06,29,15,01,19.80
2012,06,29,15,02,19.70
2012,06,29,15,03,19.60
2012,06,29,15,04,19.60
2012,06,29,15,05,19.50
2012,06,29,15,06,19.40
2012,06,29,15,07,19.30
2012,06,29,15,08,19.30
2012,06,29,15,09,19.20
2012,06,29,15,10,19.10
2012,06,29,15,11,19.00
2012,06,29,15,12,19.00
2012,06,29,15,13,18.90
2012,06,29,15,14,18.90
2012,06,29,15,15,18.90
2012,06,29,15,16,18.90
2012,06,29,15,17,18.90
2012,06,29,15,18,18.90
2012,06,29,15,19,18.90
2012,06,29,15,20,18.90
2012,06,29,15,21,18.90
2012,06,29,15,22,18.90
2012,06,29,15,23,18.90
2012,06,29,15,24,18.90
2012,06,29,15,25,18.90
2012,06,29,15,26,18.90
2012,06,29,15,27,18.90
2012,06,29,15,28,18.90
2012,06,29,15,29,18.90
2012,06,29,15,30,18.90
2012,06,29,15,31,18.90
2012,06,29,15,32,18.90
2012,06,29,15,33,18.90
2012,06,29,15,34,18.90
2012,06,29,15,35,19.00
2012,06,29,15,36,19.00
2012,06,29,15,37,19.00
2012,06,29,15,38,19.10
2012,06,29,15,39,19.20
2012,06,29,15,40,19.30
2012,06,29,15,41,19.30
2012,06,29,15,42,19.40
2012,06,29,15,43,19.40
2012,06,29,15,44,19.50
2012,06,29,15,45,19.60
2012,06,29,15,46,19.60
2012,06,29,15,47,19.60
2012,06,29,15,48,19.60
2012,06,29,15,49,19.60
2012,06,29,15,50,19.70
2012,06,29,15,51,19.70
2012,06,29,15,52,19.70
2012,06,29,15,53,19.70
2012,06,29,15,54,19.70
2012,06,29,15,55,19.70
2012,06,29,15,56,19.80
2012,06,29,15,57,19.80
2012,06,29,15,58,19.80
2012,06,29,15,59,19.70
2012,06,29,16,00,19.70
2012,06,29,16,01,19.70
2012,06,29,16,02,19.70
2012,06,29,16,03,19.70
2012,06,29,16,04,19.70
2012,06,29,16,05,19.70
2012,06,29,16,06,19.80
2012,06,29,16,07,19.80
2012,06,29,16,08,19.80
2012,06,29,16,09,19.80
2012,06,29,16,10,19.80
2012,06,29,16,11,19.90
2012,06,29,16,12,19.90
2012,06,29,16,13,19.90
2012,06,29,16,14,19.90
2012,06,29,16,15,20.00
2012,06,29,16,16,20.00
2012,06,29,16,17,20.00
2012,06,29,16,18,20.10
2012,06,29,16,19,20.10
2012,06,29,16,20,20.10
2012,06,29,16,21,20.20
2012,06,29,16,22,20.10
2012,06,29,16,23,20.20
2012,06,29,16,24,20.10
2012,06,29,16,25,20.00
2012,06,29,16,26,20.00
2012,06,29,16,27,19.90
2012,06,29,16,28,19.90
2012,06,29,16,29,19.90
2012,06,29,16,30,19.90
2012,06,29,16,31,19.90
2012,06,29,16,32,19.90
2012,06,29,16,33,19.90
2012,06,29,16,34,19.80
2012,06,29,16,35,19.80
2012,06,29,16,36,19.70
2012,06,29,16,37,19.60
2012,06,29,16,38,19.40
2012,06,29,16,39,19.30
2012,06,29,16,40,19.30
2012,06,29,16,41,19.20
2012,06,29,16,42,19.20
2012,06,29,16,43,19.10
2012,06,29,16,44,19.10
2012,06,29,16,45,19.10
2012,06,29,16,46,19.10
2012,06,29,16,47,19.20
2012,06,29,16,48,19.20
2012,06,29,16,49,19.20
2012,06,29,16,50,19.30
2012,06,29,16,51,19.30
2012,06,29,16,52,19.30
2012,06,29,16,53,19.40
2012,06,29,16,54,19.40
2012,06,29,16,55,19.50
2012,06,29,16,56,19.50
2012,06,29,16,57,19.60
2012,06,29,16,58,19.60
2012,06,29,16,59,19.60
2012,06,29,17,00,19.60
2012,06,29,17,01,19.60
2012,06,29,17,02,19.60
2012,06,29,17,03,19.60
2012,06,29,17,04,19.60
2012,06,29,17,05,19.60
2012,06,29,17,06,19.60
2012,06,29,17,07,19.60
2012,06,29,17,08,19.60
2012,06,29,17,09,19.70
2012,06,29,17,10,19.70
2012,06,29,17,11,19.70
2012,06,29,17,12,19.70
2012,06,29,17,13,19.70
2012,06,29,17,14,19.70
2012,06,29,17,15,19.60
2012,06,29,17,16,19.60
2012,06,29,17,17,19.50
2012,06,29,17,18,19.40
2012,06,29,17,19,19.30
2012,06,29,17,20,19.30
2012,06,29,17,21,19.30
2012,06,29,17,22,19.30
2012,06,29,17,23,19.30
2012,06,29,17,24,19.30
2012,06,29,17,25,19.30
2012,06,29,17,26,19.30
2012,06,29,17,27,19.30
2012,06,29,17,28,19.40
2012,06,29,17,29,19.40
2012,06,29,17,30,19.50
2012,06,29,17,31,19.50
2012,06,29,17,32,19.50
2012,06,29,17,33,19.60
2012,06,29,17,34,19.60
2012,06,29,17,35,19.60
2012,06,29,17,36,19.60
2012,06,29,17,37,19.60
2012,06,29,17,38,19.60
2012,06,29,17,39,19.60
2012,06,29,17,40,19.60
2012,06,29,17,41,19.60
2012,06,29,17,42,19.60
2012,06,29,17,43,19.60
2012,06,29,17,44,19.60
2012,06,29,17,45,19.60
2012,06,29,17,46,19.60
2012,06,29,17,47,19.60
2012,06,29,17,48,19.60
2012,06,29,17,49,19.70
2012,06,29,17,50,19.70
2012,06,29,17,51,19.80